Location: DARK SKY Beskydy - Park tmavé oblohy, www.darkskybeskydy.cz
(49.4926°N, 18.5016°E)
Time: 12:38:15
(UTC+02:00)

Vanguard 1 - Pass Details

Date: 26 February 2024
Orbit: 653 x 3825 km, 34.2° (Epoch: 12 April)

Event Time Altitude Azimuth Distance (km) Brightness Sun altitude
Rises 20:47:42 0° 247° (WSW) 5,709 14.4 -33.1°
Reaches altitude 10° 20:51:00 10° 242° (WSW) 5,061 14.0 -33.6°
Maximum altitude 21:06:15 50° 173° (S) 3,960 12.7 -35.7°
Enters shadow 21:09:03 48° 155° (SSE) 4,160 12.7 -36.0°
Drops below altitude 10° 21:27:46 10° 108° (ESE) 6,921 - -38.5°
Sets 21:33:18 0° 104° (ESE) 7,866 - -39.2°
